Location: Newark
(43.4306°N, 0.3089°E)
Time: 00:17:46
(UTC+00:00)

Transit 2A Rocket - Pass Details

Date: 01 September 2019
Orbit: 594 x 910 km, 66.7° (Epoch: 17 October)

Event Time Altitude Azimuth Distance (km) Brightness Sun altitude
Rises 01:20:50 0° 331° (NNW) 2,986 8.5 -34.9°
Reaches altitude 10° 01:23:14 10° 335° (NNW) 2,031 7.6 -34.7°
Enters shadow 01:23:43 13° 337° (NNW) 1,847 7.4 -34.7°
